Current Version              Previous Version:    01  02  03  04  05  06  07  08  09  10  11  12  13  14  15  16  17  18  19  20  21  22  23  24  25  26  27  28  29  30  
   31  32  33  34  35  36  37  38  39  40  41  42  43  44  45  46  47  48  49  50  51  52  53  54  55  56  57  58  59  60  

[Printable]
315
ASUS44 KEWX 020202
RWRTX
SOUTH TEXAS REGIONAL WEATHER ROUNDUP
NATIONAL WEATHER SERVICE AUSTIN/SAN ANTONIO TX
900 PM CDT FRI AUG 01 2014

NOTE: "FAIR" INDICATED FEW OR NO CLOUDS BELOW 12,000 FEET WITH NO
SIGNIFICANT WEATHER AND/OR OBSTRUCTIONS TO VISIBILITY.

* - THESE STATIONS ARE NOT NWS OR FAA STATIONS...AND ARE NOT SUBJECT
    TO NWS AND FAA QUALITY CONTROL.

TXZ171-172-183>190-020300-
TEXAS HILL COUNTRY AND EDWARDS PLATEAU

CITY           SKY/WX    TMP DP  RH WIND       PRES   REMARKS
JUNCTION       PTCLDY    84  58  40 E6        30.02R
*LLANO         CLEAR     82  63  51 E6        30.04R
BURNET         CLEAR     78  63  59 E5        30.05R
*HORSESHOE BAY CLEAR     80  61  52 E6        30.01R
*KERRVILLE     PTCLDY    82  60  46 NE7       30.02R
*FREDERICKSBRG PTCLDY    82  58  45 E9        30.02R
*ROCKSPRINGS   PTCLDY    84  59  42 E6        30.05R
*BOERNE STAGE  CLEAR     81  59  47 NE6       30.02R
*CASTROVILLE   CLEAR     88  56  34 E6        29.97R
HONDO          PTCLDY    86  64  47 E9        29.98R
*UVALDE        MOCLDY    88  73  60 CALM      29.95R HX  95
DEL RIO        MOCLDY    90  63  40 W5        29.93R HX  91
LAUGHLIN AFB   NOT AVBL
CARRIZO SPRGS  CLOUDY    79  75  89 W5        29.92R
$$

TXZ173-191>194-202-209-217>225-228-020300-
CENTRAL AND SOUTH CENTRAL TEXAS

CITY           SKY/WX    TMP DP  RH WIND       PRES   REMARKS
GEORGETOWN     CLEAR     79  64  61 NE5       30.01R
AUSTIN/BERGSTM PTCLDY    81  65  58 NE10      29.98R
AUSTIN/MABRY   CLEAR     81  65  58 NE6       30.00R
*AUSTIN/EXEC   PTCLDY    79  66  65 NE6       30.00R
*LAGO VISTA    CLEAR     79  63  57 E7        30.02R
SAN MARCOS     CLEAR     81  63  54 NE13      30.00R
NEW BRAUNFELS  CLEAR     83  64  52 NE13      29.96R
RANDOLPH AFB   NOT AVBL
PT SAN ANTONIO NOT AVBL
SAN ANTONIO    PTCLDY    87  63  44 NE9       29.97R
STINSON FIELD  PTCLDY    89  62  40 E14       29.94R
*PLEASANTON    CLEAR     88  64  44 NE7       29.94R
*LA GRANGE     CLEAR     81  71  72 NE6       29.96R
*GIDDINGS      CLEAR     78  67  71 NE6       30.02R
*GONZALES      CLEAR     87  66  49 NE8G17    29.93R
$$

TXZ163>164-176>182-195>201-210>213-226-227-235-020300-
SOUTHEAST TEXAS

CITY           SKY/WX    TMP DP  RH WIND       PRES   REMARKS
COLLEGE STN    CLOUDY    76  68  76 NE9       29.99R
*BRYAN         PTCLDY    73  68  84 NE5       29.99R
*CALDWELL      PTCLDY    75  70  83 NE5       30.02S
*CROCKETT      MOCLDY    75  72  88 N3        30.02S
*BRENHAM       CLEAR     76  68  76 N5        29.99R
HUNTSVILLE     CLOUDY    74  68  81 NE3       29.99R
CONROE         CLOUDY    75  69  81 N5        29.99R
HOUSTON BUSH   PTCLDY    78  70  76 N8        29.96R
HOUSTON HOBBY  PTCLDY    82  69  64 N12       29.94R
*HOUSTON SW AP   N/A    N/A N/A N/A MISG        N/A
PEARLAND       CLOUDY    84  68  58 N9        29.95R
HOUSTON HOOKS  CLEAR     77  70  79 N7        29.97R
ELLINGTON FLD  NOT AVBL
SUGAR LAND     CLEAR     81  70  69 N10       29.94R
*HOUSTON EXEC  CLOUDY    77  72  83 N10       29.98R
*CLEVELAND MUN CLOUDY    75  70  86 NE3       29.98R
*WHARTON       PTCLDY    80  71  73 N6        29.95R
$$

TXZ214>216-236>238-020300-
THE UPPER TEXAS COAST

CITY           SKY/WX    TMP DP  RH WIND       PRES   REMARKS
*ORANGE        CLOUDY    78  71  80 N8        29.95R
PORT ARTHUR    CLOUDY    80  71  74 N12       29.94R
GALVESTON      CLOUDY    76  72  87 N15       29.94R
ANGLETON       MOCLDY    80  78  94 CALM      29.93S
*BAY CITY      MOCLDY    82  82  98 NE3       29.93S HX  96
PALACIOS       MOCLDY    82  78  88 CALM      29.93R HX  91
$$

TXZ229>234-239>247-020300-
TEXAS COASTAL BEND AND RIO GRANDE PLAINS

CITY           SKY/WX    TMP DP  RH WIND       PRES   REMARKS
VICTORIA       CLOUDY    83  76  79 E5        29.94R HX  91
*BEEVILLE      PTCLDY    81  74  78 SE3       29.93S
ROCKPORT       CLOUDY    84  77  79 S6        29.91R HX  94
*PORT ARANSAS  PTCLDY    82  78  88 S5        29.91R HX  90
*PORT LAVACA   MOCLDY    82  76  83 CALM      29.93R
*INGLESIDE     CLOUDY    85  76  74 S8        29.91R HX  95
CORPUS CHRISTI CLOUDY    85  75  72 SE10      29.92R HX  93
CORPUS NAS     CLOUDY    84  78  82 S8        29.92R HX  95
*ROBSTOWN      NOT AVBL
ALICE          LGT RAIN  79  76  90 CALM      29.92S
KINGSVILLE NAS CLOUDY    85  78  80 SE7       29.92R THUNDER HX  96
COTULLA        CLOUDY    86  70  58 SE9       29.93R HX  90
*FAITH RANCH   CLOUDY    81  75  83 CALM      29.94R
LAREDO         HVY RAIN  78  73  84 NE12      29.98R
$$

TXZ248>255-020300-
DEEP SOUTH TEXAS

CITY           SKY/WX    TMP DP  RH WIND       PRES   REMARKS
BROWNSVILLE    PTCLDY    84  77  79 SE10      29.92R HX  94
PORT ISABEL    CLEAR     84  77  79 SE13      29.92R HX  94
*SOUTH PADRE     N/A     82  79  89 SE7       29.92R HX  93
HARLINGEN      CLEAR     84  76  76 SE15      29.90R HX  93
*HEBBRONVILLE  TSTM      77  70  80 N13G18    29.98R
MCALLEN        CLEAR     88  72  58 SE17      29.90R HX  94
*WESLACO       CLEAR     87  71  58 SE13G20   29.89R HX  93
FALFURRIAS     CLOUDY    79  70  73 N12       29.93R
EDINBURG       CLEAR     89  71  55 SE15      29.90R HX  95
*ZAPATA        NOT AVBL
$$

TXZ213>215-236>238-242>244-246-247-251-254-255-020300-
CMAN STATIONS

STATION/POSITION TIME  TEMP    WIND        PRES    WAVE
                       AIR SEA DIR/SP/G            HT/PER
                 (UTC) (F)     (DEG/KT/KT) (MB)    (FT/S)
SABINE PASS      0100   82 87  310/  6/  8 1013.4
SEA RIM ST PARK  0100   81     330/  6/  6 1013.8
NORTH JETTY/GLS  0100   83 90   40/ 13/ 15   N/A
EAGLE POINT      0100   83 86   20/  7/ 13 1013.7
MORGANS POINT    0100   82 90   20/  8/ 12 1013.6
MISSION/ARANSAS  0100   83     160/ 10     1014.0
PORT O`CONNOR    0100          120/  5/  5   N/A
PORT ARANSAS     0100   81 85  120/  5/  5 1013.3
MALAQUITE BEACH  0100   80 81  140/  6/  7 1012.2
BAFFIN BAY       0100   82 84  140/ 10/ 12 1012.8
PORT ISABEL      0100   83 83  120/  9/ 12 1013.3
$$

GMZ080-GMZ150>470-020300-
OFFSHORE BUOY REPORTS

STATION/POSITION TIME  TEMP    WIND        PRES    WAVE
                       AIR SEA DIR/SP/G            HT/PER
                 (UTC) (F)     (DEG/KT/KT) (MB)    (FT/S)
90 E PT ARANSAS  0200   83 84  140/  4/  6 1013.6    2/ 5
35 NE PT MANSFLD 0100   84 85  150/ 12/ 14 1012.1    2/ 5
200 E PT ISABEL  0100   85 87   70/  4/  4 1013.4    1/ 5
$$